Wetbulb
43.39 38.93 35.90 38.93 40.94 41.58 39.70 38.00 36.39 39.30 41.98 40.16 37.49 38.84 42.53 43.27 43.64 44.50 45.69 44.99 46.14 47.53 49.70 50.95 50.97 51.67 52.89 52.92 52.72 55.27 54.71 58.83 69.38 67.70 67.74 67.72 69.21 69.52 70.85 71.73 70.36 70.12 71.54 70.56
40.21 36.40 42.63 45.29 44.33 42.79 41.46 37.66 38.37 40.37 42.70 39.63 38.68 39.52 42.36 43.51 42.83 43.08 46.12 46.73 46.44 49.16 50.77 51.77 50.97 50.69 51.13 52.95 52.89 55.68 56.92 57.36 66.89 69.61 68.91 67.83 68.87 69.86 70.42 71.18 71.91 70.48 70.26 70.04
37.78 41.95 46.21 45.31 42.99 41.65 40.52 37.68 37.63 37.63 40.61 40.07 38.26 37.41 39.82 43.14 44.52 46.86 47.91 47.90 48.40 48.61 49.61 51.01 51.70 51.26 51.39 51.61 52.13 55.35 58.37 58.23 61.07 69.13 68.51 67.27 67.18 67.38 66.97 69.43 69.79 70.75 70.30 70.24
40.63 44.92 45.02 42.86 41.13 41.37 34.92 41.83 40.77 39.39 35.67 29.39 37.92 29.41 36.16 39.58 41.47 44.78 46.07 45.59 47.65 48.93 50.92 52.15 52.47 52.69 50.04 51.26 53.11 54.88 58.96 58.95 60.56 65.00 67.67 66.82 66.43 66.29 67.30 68.44 69.70 70.05 70.38 70.11
41.24 41.86 41.30 39.61 41.03 42.82 38.71 42.57 39.71 38.58 34.12 30.65 33.25 28.99 32.53 39.43 39.18 42.82 45.84 47.36 47.99 49.11 50.48 51.42 52.21 53.08 54.98 56.20 51.66 54.23 58.40 59.96 61.30 62.90 66.28 67.42 65.51 67.25 67.12 67.16 68.15 69.97 69.35 70.04
42.12 46.38 44.14 42.45 44.65 43.56 43.53 38.94 36.59 34.66 30.92 23.56 30.97 30.46 30.03 35.53 39.75 43.39 47.85 48.82 49.68 49.25 49.37 51.64 53.31 53.04 53.76 56.24 56.38 56.00 57.97 60.43 61.34 63.14 65.57 66.58 66.09 66.96 67.63 66.07 67.15 68.44 69.41 69.41
40.57 41.48 44.07 46.13 39.82 40.60 38.66 31.49 22.38 22.74 21.55 22.82 33.58 31.53 32.50 41.11 44.72 45.60 46.53 47.87 48.36 48.85 48.14 49.03 50.74 51.68 53.03 54.52 55.43 57.18 58.44 57.62 60.58 62.41 63.26 66.49 66.89 67.36 67.54 67.27 67.04 67.45 68.60 69.05
33.55 32.79 41.89 45.16 39.64 35.84 35.22 31.91 23.25 21.03 21.36 26.97 35.76 28.15 33.76 43.18 46.02 47.56 48.74 48.07 48.43 47.22 46.58 48.48 49.45 50.76 51.63 53.80 54.33 55.15 55.77 57.09 58.43 60.66 61.06 61.94 67.05 68.33 68.17 66.05 65.23 67.22 68.15 68.89
32.50 35.00 43.95 44.92 43.50 40.66 35.43 27.34 35.48 25.96 29.12 25.52 28.92 34.09 40.22 42.98 45.03 46.40 46.10 46.32 44.32 45.86 46.15 47.22 49.00 50.24 50.68 51.51 52.86 53.82 55.10 56.62 59.67 59.38 61.12 62.56 63.45 66.78 67.68 66.36 64.69 65.64 67.30 68.47
38.43 31.19 41.70 43.38 43.02 42.18 36.89 38.86 29.67 29.67 19.53 21.37 26.58 28.97 30.54 38.06 39.32 43.08 42.59 41.24 42.19 44.27 44.90 45.66 47.32 48.66 50.07 50.58 52.01 54.32 56.83 56.54 57.31 63.49 64.17 64.26 64.09 65.41 65.07 64.13 64.51 63.77 66.28 67.21
38.78 32.37 35.68 39.49 36.29 34.78 34.22 31.42 34.66 35.35 31.36 26.45 23.40 25.60 35.77 38.60 38.37 40.21 39.70 41.25 40.64 42.04 43.35 45.15 46.58 47.70 48.70 49.95 51.07 52.36 53.04 56.66 57.50 57.71 59.20 62.49 62.87 63.45 63.72 63.93 63.85 63.48 63.09 63.70
39.82 33.81 29.27 34.35 41.02 42.04 37.98 34.97 34.37 23.27 27.29 28.75 29.46 28.73 41.68 39.23 42.41 41.06 41.04 41.31 41.08 41.33 42.33 43.62 44.84 45.91 47.45 48.72 49.83 50.66 51.77 54.56 57.13 57.25 57.50 62.29 60.18 61.10 61.54 63.26 64.04 63.75 62.86 63.72
38.69 29.53 23.19 31.14 33.94 37.51 34.93 37.00 36.73 34.56 31.29 25.96 28.36 30.33 42.17 42.95 41.10 40.48 39.29 39.50 40.42 41.78 42.58 43.45 44.07 44.69 45.79 47.98 48.44 49.96 51.87 51.86 56.19 57.44 58.50 58.76 61.17 59.57 59.49 62.01 61.90 63.93 63.42 64.06
44.33 32.76 30.99 28.67 32.63 34.93 34.21 37.06 38.08 34.03 31.07 31.51 33.14 34.27 38.85 39.94 38.58 38.93 39.52 39.56 39.62 41.19 42.18 42.24 42.68 43.76 45.33 46.34 46.27 47.57 49.19 51.65 53.04 56.19 56.26 58.67 57.83 58.33 59.75 61.58 61.66 62.43 63.70 62.48
38.99 31.78 34.40 36.02 37.68 38.18 36.98 37.13 37.54 35.20 35.71 32.88 34.94 34.67 37.86 37.89 37.60 38.85 40.39 41.07 41.04 40.23 40.51 41.06 41.46 42.76 44.14 45.05 46.02 46.95 47.71 49.96 51.59 52.47 54.83 55.29 58.68 59.03 57.36 61.82 60.79 59.30 60.02 59.95
37.30 31.76 34.96 34.45 38.58 38.80 36.50 38.40 38.72 38.67 37.97 35.83 36.27 34.88 39.89 38.80 39.44 39.69 40.25 39.77 38.34 39.18 40.04 41.30 42.64 43.35 43.79 44.81 44.58 46.32 46.90 47.99 49.85 51.21 52.28 55.91 59.18 60.36 61.33 61.57 59.57 58.37 57.57 57.91
34.54 33.93 31.58 29.58 36.93 37.84 33.06 36.35 36.91 37.05 38.46 37.36 30.89 36.98 37.66 37.90 38.02 38.88 38.18 37.82 38.03 38.92 40.40 41.10 42.30 43.24 43.80 43.63 44.61 43.88 45.83 48.35 48.80 49.89 52.87 56.38 58.99 59.90 60.57 60.84 59.15 58.39 57.31 57.81
34.00 33.55 36.08 33.47 36.16 27.06 34.42 40.98 40.72 37.80 38.81 39.33 38.35 37.49 38.44 38.20 38.55 38.99 39.43 38.79 38.10 39.10 40.08 40.14 41.09 41.72 42.96 43.61 43.76 44.07 45.44 46.57 48.40 49.02 52.20 57.21 58.11 58.33 57.69 57.41 57.09 55.64 55.48 53.75
38.65 37.30 35.13 31.56 27.67 33.37 35.56 38.40 33.00 33.47 35.19 37.90 36.91 38.36 38.03 38.04 37.69 36.58 40.30 40.16 39.33 39.20 39.86 40.48 41.38 41.82 42.54 42.97 43.54 43.56 44.95 46.16 48.00 49.38 51.52 56.54 57.46 57.13 56.42 55.38 54.58 54.66 52.59 51.02
38.47 37.90 32.17 28.20 24.14 23.80 31.97 40.72 44.11 40.78 31.64 39.17 38.40 36.60 36.06 36.50 29.52 33.87 39.27 39.43 38.42 39.54 40.03 40.15 41.36 42.60 43.42 43.31 43.54 42.51 43.73 45.18 45.91 48.70 51.35 55.86 57.24 57.44 56.19 55.34 54.32 53.69 52.53 50.73
29.72 30.00 27.75 27.37 27.37 29.96 38.45 41.98 43.12 29.41 32.31 39.06 39.41 37.69 36.09 33.35 35.47 37.84 39.17 38.36 39.21 39.34 39.81 41.49 43.08 45.25 46.68 45.57 43.76 41.92 42.81 44.36 46.62 49.25 52.26 56.39 58.06 56.96 55.92 54.90 52.93 51.33 49.64 49.35
27.92 23.95 29.35 29.19 26.95 22.81 40.86 40.61 34.75 37.24 39.40 39.42 36.88 37.04 36.39 37.06 37.54 37.41 37.49 37.90 38.64 38.85 40.14 43.05 44.96 45.76 44.52 45.02 43.83 41.71 42.25 46.39 48.16 49.33 56.03 57.06 56.31 54.96 53.94 52.46 51.13 50.31 49.01 47.01
26.86 31.83 30.90 33.51 30.39 38.86 42.86 42.78 43.72 42.03 36.40 36.02 34.77 37.34 37.13 36.49 35.76 36.48 36.30 37.87 38.35 39.10 40.98 44.55 46.92 43.58 44.43 44.46 44.12 42.45 44.47 46.76 47.59 50.78 53.98 54.04 54.24 52.60 51.34 50.69 49.12 48.04 47.80 46.13
34.07 36.33 34.48 34.65 37.44 40.49 42.67 43.58 42.14 40.60 38.04 39.19 37.83 37.58 37.90 35.62 36.30 36.27 37.13 37.51 37.90 39.16 42.29 45.46 45.02 42.37 42.60 43.81 44.51 44.55 45.97 47.36 49.69 52.78 52.91 53.27 51.53 50.00 50.00 49.69 49.58 48.62 46.49 46.04
36.40 35.98 34.80 37.37 39.57 41.32 42.43 41.45 38.82 37.92 37.52 38.69 39.12 38.32 36.80 36.63 36.24 36.70 36.99 36.95 38.41 39.91 44.05 46.44 45.57 42.84 43.00 44.20 43.98 44.59 45.84 47.48 50.34 53.19 52.40 51.53 49.95 48.69 47.71 47.57 46.97 47.44 47.46 46.79
35.46 35.11 35.48 35.06 40.90 38.91 37.27 37.58 38.29 36.59 37.91 38.66 37.80 36.31 37.49 37.34 36.57 36.84 36.13 37.05 39.00 41.90 44.19 45.16 46.14 43.90 43.85 44.27 44.82 44.58 46.76 50.00 52.70 52.10 51.08 50.19 48.00 46.57 44.91 43.07 40.48 39.45 40.96 40.58
MSLP
1011.81 1012.76 1013.09 1013.23 1013.24 1013.14 1013.12 1012.70 1012.18 1011.29 1010.83 1010.77 1010.58 1009.81 1009.09 1009.28 1009.26 1008.59 1008.02 1007.77 1007.13 1006.50 1005.43 1004.32 1003.58 1003.11 1003.06 1003.06 1003.43 1003.64 1003.83 1004.14 1004.71 1005.43 1006.05 1006.48 1006.80 1007.05 1007.32 1007.65 1007.77 1008.25 1008.18 1008.15
1012.68 1012.83 1012.46 1012.27 1012.24 1012.33 1012.24 1012.35 1012.05 1010.94 1010.74 1010.92 1010.70 1009.36 1009.07 1008.93 1009.14 1008.88 1008.68 1008.29 1007.72 1006.88 1005.69 1004.57 1003.59 1003.07 1002.89 1002.34 1002.37 1002.84 1002.96 1003.29 1003.91 1004.34 1004.85 1005.38 1005.77 1006.20 1006.45 1006.74 1007.23 1007.32 1007.74 1007.61
1012.71 1012.40 1012.00 1011.94 1011.94 1012.11 1012.41 1012.98 1012.61 1012.12 1011.41 1011.19 1011.08 1009.76 1009.21 1008.80 1008.95 1008.91 1008.50 1008.25 1007.85 1007.19 1006.10 1004.27 1003.40 1003.01 1002.22 1001.78 1001.75 1001.97 1002.23 1002.38 1002.78 1003.41 1004.12 1004.84 1005.26 1005.87 1006.58 1006.80 1006.89 1007.27 1006.78 1007.41
1012.15 1011.56 1011.78 1011.96 1012.32 1012.72 1012.71 1013.02 1012.89 1012.65 1012.48 1012.69 1012.24 1010.07 1010.04 1009.16 1009.30 1008.97 1008.48 1008.30 1007.62 1006.89 1005.17 1005.15 1004.10 1003.70 1003.02 1001.74 1001.26 1001.03 1001.46 1001.78 1002.19 1002.68 1003.37 1003.90 1004.46 1005.17 1005.44 1005.72 1005.87 1006.01 1006.60 1006.90
1011.66 1011.72 1011.74 1012.09 1012.89 1012.95 1013.27 1013.14 1013.37 1013.30 1013.40 1013.50 1012.81 1012.15 1010.39 1009.91 1009.70 1009.06 1008.38 1008.04 1007.61 1007.06 1005.95 1005.50 1004.67 1004.47 1003.33 1002.19 1001.36 1001.30 1000.84 1001.20 1001.46 1002.01 1002.54 1003.25 1003.95 1004.26 1004.54 1005.04 1005.34 1005.51 1005.59 1006.06
1011.55 1011.59 1011.55 1012.17 1012.59 1012.99 1013.39 1013.81 1013.76 1014.00 1014.44 1014.73 1014.12 1013.79 1011.67 1010.90 1010.17 1009.06 1008.09 1007.89 1007.72 1007.03 1006.45 1006.11 1005.15 1004.34 1003.62 1002.84 1001.97 1001.64 1001.79 1000.86 1000.97 1001.42 1001.98 1002.65 1003.29 1003.75 1004.17 1004.58 1004.79 1004.90 1004.86 1005.46
1012.47 1012.10 1012.17 1012.32 1012.62 1013.19 1014.25 1015.37 1016.08 1016.23 1016.45 1016.10 1014.78 1014.14 1011.81 1010.72 1009.50 1009.08 1008.40 1008.10 1007.82 1007.65 1007.61 1007.00 1005.92 1005.55 1004.67 1003.86 1003.10 1002.25 1002.10 1002.17 1000.93 1001.14 1001.57 1002.03 1002.61 1003.01 1003.34 1003.73 1004.28 1004.47 1004.52 1004.81
1013.42 1012.84 1012.93 1013.23 1013.77 1014.38 1014.92 1016.05 1017.71 1018.02 1017.75 1016.18 1015.12 1013.69 1011.60 1010.50 1009.34 1008.93 1008.41 1008.44 1008.45 1008.29 1008.08 1007.42 1006.67 1006.16 1005.29 1004.35 1003.41 1002.68 1002.36 1002.10 1002.02 1001.03 1001.18 1001.57 1002.04 1002.42 1002.89 1003.19 1003.63 1003.79 1004.02 1003.82
1014.59 1014.16 1013.55 1013.60 1014.13 1014.86 1015.30 1016.33 1017.10 1017.74 1017.98 1017.26 1015.13 1013.23 1011.70 1010.33 1009.43 1009.06 1008.90 1008.74 1008.83 1008.71 1008.25 1007.88 1007.34 1006.56 1005.86 1004.98 1004.19 1003.34 1002.74 1002.74 1001.95 1001.57 1001.41 1001.09 1001.70 1002.22 1002.51 1002.81 1003.06 1003.32 1003.48 1003.38
1015.25 1015.03 1014.34 1014.05 1014.17 1014.34 1015.32 1016.03 1017.06 1018.31 1018.37 1017.13 1014.90 1013.20 1011.50 1010.48 1009.78 1009.72 1009.73 1009.67 1009.60 1009.24 1008.65 1008.18 1007.68 1006.87 1005.72 1005.33 1004.52 1003.67 1002.99 1002.43 1002.32 1001.76 1001.57 1001.64 1001.76 1001.96 1002.29 1002.62 1002.97 1003.20 1003.06 1003.36
1015.64 1016.56 1015.59 1015.23 1015.12 1014.89 1015.44 1015.90 1016.75 1017.68 1018.01 1017.08 1015.17 1012.83 1011.00 1010.31 1009.93 1010.30 1010.09 1010.06 1010.01 1009.73 1009.21 1008.57 1007.87 1007.11 1006.21 1005.27 1004.71 1003.89 1003.40 1002.66 1002.28 1002.30 1001.91 1001.13 1001.65 1001.97 1002.34 1002.54 1002.67 1002.92 1003.24 1003.33
1016.09 1016.65 1016.64 1015.86 1014.54 1014.47 1015.17 1015.57 1016.25 1017.43 1017.31 1016.68 1015.40 1011.90 1010.10 1010.01 1010.33 1010.37 1010.43 1010.28 1009.99 1009.80 1009.13 1008.46 1007.83 1007.05 1006.22 1005.37 1004.67 1004.07 1003.28 1002.70 1002.12 1002.50 1002.18 1001.40 1001.28 1002.49 1002.80 1002.48 1002.33 1002.43 1002.94 1003.33
1016.28 1017.14 1017.14 1015.92 1015.07 1014.67 1014.65 1015.07 1015.61 1016.10 1016.21 1015.60 1014.72 1011.67 1010.13 1009.88 1010.62 1010.53 1010.62 1010.42 1010.20 1009.83 1009.27 1008.49 1007.48 1006.55 1005.86 1004.98 1004.37 1004.22 1003.65 1003.05 1002.42 1002.12 1002.14 1001.81 1001.19 1003.00 1002.97 1002.57 1002.53 1002.27 1002.68 1003.13
1015.96 1016.90 1017.15 1016.57 1015.28 1015.05 1014.59 1014.28 1014.46 1015.09 1015.23 1014.23 1013.03 1011.73 1010.02 1010.66 1010.81 1010.86 1010.50 1010.53 1010.17 1009.61 1008.88 1008.19 1007.31 1006.23 1005.37 1004.83 1004.30 1003.98 1003.92 1003.23 1002.74 1002.14 1002.19 1002.74 1002.55 1003.16 1002.04 1002.16 1002.84 1002.63 1002.76 1003.23
1016.17 1016.74 1016.60 1015.73 1015.00 1014.67 1014.12 1013.73 1012.91 1013.61 1013.43 1013.37 1011.92 1011.49 1010.50 1010.73 1011.24 1010.86 1010.58 1010.19 1009.45 1008.88 1008.34 1007.95 1007.23 1006.32 1005.39 1004.61 1004.03 1003.57 1003.39 1003.24 1002.60 1002.35 1002.25 1002.78 1003.04 1002.78 1002.73 1002.44 1003.05 1002.97 1003.38 1003.76
1016.09 1015.95 1015.78 1014.94 1014.50 1014.17 1013.24 1013.02 1012.44 1012.20 1012.05 1011.88 1011.78 1010.96 1010.58 1011.02 1011.13 1010.63 1010.41 1010.19 1009.57 1008.71 1007.65 1007.16 1006.67 1006.09 1005.38 1004.70 1004.14 1003.69 1003.16 1002.87 1002.50 1002.35 1001.91 1001.61 1001.43 1001.57 1001.70 1002.40 1003.09 1003.12 1003.77 1004.48
1015.92 1015.85 1015.88 1014.38 1014.03 1013.50 1012.62 1011.64 1011.71 1011.55 1011.64 1012.03 1011.89 1011.01 1011.27 1011.32 1011.30 1010.76 1010.07 1009.86 1008.78 1008.29 1007.81 1006.97 1006.38 1005.79 1005.17 1004.57 1004.23 1003.69 1003.09 1002.78 1002.42 1002.32 1001.97 1001.21 1001.41 1001.90 1002.04 1002.51 1003.29 1003.88 1004.34 1004.79
1015.08 1015.83 1015.98 1014.94 1014.33 1013.04 1011.44 1011.15 1011.37 1011.61 1011.60 1011.58 1011.44 1011.91 1012.13 1011.82 1011.16 1010.41 1010.12 1009.33 1008.66 1008.05 1007.42 1006.79 1006.09 1005.46 1004.92 1004.26 1003.88 1003.57 1003.00 1002.56 1002.36 1002.16 1002.18 1001.37 1001.50 1002.28 1002.65 1003.20 1003.57 1004.60 1005.19 1005.69
1015.11 1015.72 1016.02 1015.74 1014.74 1012.58 1011.66 1011.80 1011.98 1012.05 1011.18 1011.51 1012.27 1012.22 1011.90 1011.29 1010.45 1009.29 1008.86 1008.73 1008.39 1007.86 1006.95 1006.08 1005.30 1004.55 1004.01 1003.61 1003.12 1003.04 1002.66 1002.39 1002.43 1001.90 1001.96 1001.36 1001.37 1002.23 1003.05 1003.43 1004.27 1005.17 1006.08 1006.78
1015.01 1015.58 1016.22 1015.75 1015.12 1013.28 1012.36 1011.95 1011.57 1011.70 1011.76 1011.98 1012.32 1012.25 1011.81 1011.15 1009.95 1007.98 1008.44 1008.51 1007.58 1006.71 1005.85 1004.94 1003.87 1003.19 1002.59 1002.06 1002.15 1002.37 1002.14 1002.04 1002.07 1001.61 1001.74 1001.39 1001.44 1002.21 1003.02 1003.44 1003.72 1005.20 1006.62 1007.46
1016.49 1016.14 1015.98 1015.73 1014.97 1013.10 1012.37 1011.72 1011.41 1012.35 1012.40 1012.08 1012.18 1012.08 1011.64 1011.18 1010.47 1008.31 1008.11 1006.87 1006.41 1005.37 1004.29 1003.35 1002.40 1001.34 1000.63 1000.32 1000.95 1001.28 1001.46 1001.44 1001.29 1001.28 1001.48 1001.37 1001.57 1002.63 1003.48 1004.34 1004.83 1006.02 1006.72 1008.22
1017.58 1017.00 1016.46 1015.80 1014.83 1012.93 1011.76 1011.41 1012.95 1012.38 1012.08 1012.26 1012.12 1011.77 1011.01 1010.17 1009.09 1008.50 1007.63 1006.68 1005.36 1004.12 1002.95 1001.93 1000.73 999.79 999.42 999.25 999.90 1000.31 1000.71 1000.76 1000.75 1001.05 1001.48 1001.29 1001.89 1002.88 1003.78 1004.64 1005.57 1006.84 1007.32 1008.49
1017.61 1017.12 1016.99 1016.64 1014.29 1012.42 1012.54 1012.49 1012.29 1012.40 1012.49 1012.26 1011.96 1011.25 1010.73 1009.51 1008.69 1007.98 1006.91 1005.82 1004.67 1003.50 1002.19 1000.80 999.42 999.05 998.72 998.43 999.04 999.63 999.92 1000.03 1000.15 1000.80 1001.57 1001.74 1002.39 1003.41 1004.34 1005.22 1006.33 1007.35 1008.15 1009.04
1016.96 1016.39 1016.08 1015.77 1013.13 1013.00 1012.56 1012.46 1012.43 1012.52 1012.38 1011.95 1011.59 1010.84 1010.04 1009.08 1008.23 1007.26 1006.29 1005.09 1004.16 1002.78 1001.36 1000.02 999.09 998.84 998.70 998.55 998.74 999.12 999.32 999.53 999.94 1000.58 1001.43 1002.09 1002.87 1004.12 1005.21 1006.15 1007.10 1007.68 1008.57 1009.63
1016.83 1016.25 1015.13 1014.29 1013.38 1013.00 1012.41 1012.49 1012.52 1012.20 1011.97 1011.43 1010.85 1010.29 1009.49 1008.59 1007.49 1006.84 1005.68 1004.63 1003.58 1002.23 1000.65 999.38 998.52 998.41 998.47 998.41 998.57 998.87 999.08 999.48 999.74 1000.54 1001.44 1002.53 1003.54 1004.49 1005.77 1007.12 1007.92 1008.67 1009.54 1009.81
1015.59 1015.07 1014.88 1013.83 1013.42 1013.14 1012.74 1012.52 1012.33 1011.99 1011.41 1010.92 1010.30 1009.39 1008.73 1008.13 1007.11 1006.33 1005.23 1004.21 1002.98 1001.43 1000.19 999.01 998.21 997.97 998.10 998.27 998.39 998.75 999.06 999.23 999.65 1000.69 1001.84 1002.94 1004.20 1005.25 1006.50 1007.78 1009.34 1010.33 1010.63 1010.93
Wind_Speed
5 7 5 7 9 12 8 7 8 7 4 5 3 11 13 5 9 16 17 13 13 15 16 17 14 14 11 10 10 10 10 11 8 4 4 3 7 6 5 3 8 8 12 13
8 4 5 10 8 8 11 8 15 11 3 2 6 19 10 8 7 6 8 10 8 12 15 17 12 13 11 14 13 10 12 12 10 8 5 4 6 7 9 11 5 7 9 13
3 10 11 11 10 12 10 9 10 8 6 2 5 14 12 11 1 5 7 6 7 7 13 12 15 12 16 11 11 12 12 13 14 13 4 3 4 4 3 5 10 7 13 14
5 7 8 10 4 7 3 10 6 12 8 4 5 20 7 8 6 5 8 8 8 11 15 14 15 16 13 11 9 13 13 12 12 14 11 9 8 7 5 7 9 10 12 14
11 4 5 4 2 3 4 11 7 8 3 0 3 7 6 6 6 8 10 9 9 11 13 13 12 12 11 15 7 8 13 13 13 14 13 11 7 6 5 4 9 11 10 12
3 4 3 3 3 2 8 8 6 3 2 3 1 3 6 3 7 8 14 11 10 11 12 12 11 12 13 15 15 6 6 11 11 14 13 13 12 9 8 6 6 6 7 9
3 1 2 5 6 5 10 7 6 8 6 5 2 9 9 5 5 5 8 9 9 9 8 10 14 14 16 14 16 13 7 8 9 12 12 12 12 12 12 9 6 7 7 6
3 6 3 6 3 4 5 4 5 6 3 14 4 6 5 6 8 4 4 6 7 3 5 10 12 13 13 15 13 15 13 13 7 10 12 11 11 8 8 7 4 7 7 8
4 4 7 3 2 3 5 2 4 0 3 3 4 6 7 8 7 5 9 9 9 9 8 9 12 14 12 15 14 11 12 10 9 7 7 8 7 7 7 6 6 6 7 7
3 8 6 0 4 2 2 4 2 3 3 5 5 6 9 6 6 7 8 6 6 9 13 11 9 11 12 15 14 10 9 6 9 6 4 2 1 4 5 4 6 7 8 5
3 4 5 4 3 8 5 3 3 3 4 3 5 6 4 14 5 8 4 5 7 9 10 12 13 12 12 13 14 11 6 3 7 6 3 5 3 3 3 4 5 6 4 5
3 3 4 7 18 10 6 7 4 4 5 6 8 13 12 3 4 4 4 6 7 7 8 12 14 16 14 15 12 12 9 2 1 9 6 4 6 8 5 5 5 6 7 6
3 3 5 11 7 6 1 4 5 4 2 7 7 8 7 13 3 2 7 7 6 8 11 15 17 17 15 14 8 8 12 6 5 2 5 1 8 8 10 6 4 5 7 9
7 5 10 13 15 5 13 17 15 6 6 12 16 18 23 7 6 8 11 7 8 12 18 19 18 15 15 8 8 8 9 9 4 5 3 4 9 17 8 5 6 5 6 10
4 7 7 11 15 12 16 20 24 17 17 15 20 18 17 8 7 10 8 11 20 21 19 15 15 14 14 11 11 8 8 8 6 5 7 7 8 9 7 8 9 9 7 8
2 7 4 9 13 14 21 21 22 22 13 7 7 17 7 2 5 12 16 17 22 21 22 17 15 15 14 14 13 12 10 9 7 7 4 5 1 3 10 10 11 12 11 10
6 4 2 12 6 12 11 14 7 5 4 4 8 15 7 10 14 18 19 21 24 19 17 19 17 16 15 14 11 12 12 9 6 4 4 4 6 4 9 11 12 13 11 10
4 4 3 7 5 6 6 3 3 9 8 12 12 7 12 15 16 19 20 21 19 16 20 20 18 17 16 16 14 10 12 12 7 5 3 4 7 9 9 11 11 12 10 9
6 3 3 4 4 13 7 2 2 5 18 3 3 12 17 18 22 18 11 7 15 20 21 19 18 19 17 16 16 12 11 10 6 6 2 5 10 12 12 13 14 8 10 9
10 2 4 2 4 6 4 5 8 1 10 2 5 11 19 19 18 18 17 19 22 21 18 18 20 18 17 17 16 12 12 10 7 6 2 6 11 11 11 11 14 13 11 12
5 6 4 3 5 8 3 15 4 4 5 9 9 15 18 18 15 22 22 23 21 21 22 21 20 16 16 16 14 13 12 11 10 5 2 6 12 12 11 10 13 12 15 13
4 2 3 4 5 8 16 16 2 5 12 9 11 15 19 21 22 20 21 21 22 24 24 22 16 14 8 12 13 13 12 10 10 5 6 12 14 12 11 15 12 12 15 15
5 2 6 5 8 14 12 11 6 6 7 9 11 17 19 20 20 19 20 20 20 22 20 19 11 7 7 9 12 12 10 7 8 8 11 13 15 13 14 15 13 12 12 13
5 4 5 10 6 7 14 8 4 5 9 14 14 18 17 19 19 20 19 18 17 19 19 17 7 5 4 6 9 9 7 6 8 11 14 13 14 14 12 10 9 10 11 12
8 6 6 9 13 15 6 5 8 9 8 14 17 15 17 19 20 19 17 18 17 19 16 13 8 6 6 7 8 8 6 5 8 13 14 13 12 14 13 10 8 8 8 9
4 6 4 5 18 6 9 5 8 10 13 16 16 19 18 18 18 18 16 16 16 16 15 13 8 7 6 6 9 6 5 7 12 14 12 11 12 12 12 12 13 25 16 18
Wind_Direction
331 41 310 256 234 249 258 275 271 270 217 331 265 272 301 313 297 293 294 300 298 305 299 291 268 249 232 231 215 214 174 198 176 146 156 180 203 211 209 237 227 220 211 197
13 291 258 301 310 318 326 310 298 295 245 284 308 288 303 310 266 272 293 308 326 310 308 294 287 275 247 226 211 211 195 184 187 189 180 166 169 206 208 210 236 202 216 206
184 252 287 305 300 309 293 330 307 275 310 182 299 293 317 303 301 295 314 295 280 322 301 316 303 300 265 228 208 201 203 187 188 190 163 91 78 78 166 230 221 220 207 213
226 251 306 306 326 356 294 328 315 320 343 298 91 289 322 283 303 297 320 326 312 339 11 3 5 341 322 257 242 200 200 193 189 187 187 184 189 190 191 194 214 210 204 216
253 320 290 66 326 356 261 312 284 278 281 22 224 268 321 345 321 313 319 327 324 350 12 355 1 331 335 2 287 236 202 200 190 184 186 186 183 192 201 186 195 211 195 204
253 257 60 128 278 16 300 342 325 347 57 38 244 95 270 296 280 314 328 332 336 358 355 347 350 357 354 358 15 336 263 206 187 183 184 183 187 194 208 209 195 204 205 199
339 176 91 45 355 29 23 29 328 350 1 230 0 314 262 282 324 301 321 313 340 10 335 331 2 357 352 356 1 9 344 288 209 189 185 188 191 199 209 205 196 195 215 187
356 330 49 345 102 291 312 139 164 285 273 291 274 241 251 263 285 264 291 277 27 37 345 357 350 347 350 342 350 349 350 318 265 215 195 195 196 198 205 193 178 203 214 200
351 268 327 306 104 114 295 8 244 81 259 313 245 289 303 272 308 343 320 21 6 5 3 358 347 344 340 340 325 333 333 334 267 242 265 182 177 180 199 190 179 205 211 195
244 292 250 269 13 348 79 198 198 10 304 273 271 257 256 266 275 327 340 359 332 350 351 345 339 329 333 330 317 310 310 345 331 269 210 246 231 185 195 168 210 202 216 178
112 134 272 25 288 290 325 333 47 147 200 273 291 256 260 268 275 264 270 360 354 348 344 341 333 323 317 315 315 309 293 3 332 324 244 124 68 5 200 218 237 204 195 167
271 189 280 252 274 261 200 207 151 135 279 243 265 279 276 184 213 135 340 320 318 321 321 325 317 312 308 304 307 306 301 335 25 306 291 78 57 357 308 238 214 179 163 166
223 282 337 312 344 3 119 248 230 212 214 221 270 273 270 320 326 304 284 283 299 303 304 294 294 290 289 285 298 324 314 242 189 159 331 48 109 272 271 247 198 164 141 130
169 197 186 252 259 258 289 284 275 223 259 278 263 277 279 263 285 302 290 287 280 293 301 303 298 284 279 268 299 310 315 318 253 149 144 206 182 227 226 125 147 121 122 136
152 242 221 243 262 264 268 279 283 273 264 264 281 271 283 287 218 253 290 306 315 311 306 304 299 297 298 293 287 290 300 300 337 267 151 171 199 214 211 141 126 111 99 108
215 257 243 267 269 269 276 275 274 275 274 246 266 279 301 324 307 311 316 312 301 302 303 302 302 295 293 293 291 309 298 296 316 329 240 152 150 97 148 141 128 120 117 124
208 211 191 270 267 285 274 250 247 261 261 239 257 280 11 323 312 302 308 306 299 296 291 297 298 292 286 284 284 286 291 300 293 341 291 127 117 108 137 130 129 120 121 126
207 142 183 283 316 233 243 200 236 247 252 261 282 337 311 295 293 299 297 285 283 287 299 294 289 283 278 278 274 272 273 277 297 304 299 154 122 114 118 118 114 119 111 117
161 141 253 279 238 284 278 76 252 261 295 142 318 311 305 308 306 296 280 286 298 295 286 281 278 274 271 264 263 261 265 265 280 274 303 174 133 137 134 137 126 114 112 109
9 157 163 251 246 281 215 284 284 123 283 146 304 307 310 318 304 302 312 305 298 289 282 282 278 270 262 251 248 241 246 246 242 259 300 193 143 149 151 151 136 138 126 124
305 303 267 246 251 273 109 347 305 340 297 305 312 304 301 297 280 297 302 301 295 292 294 290 279 268 262 240 227 225 234 233 225 236 224 181 139 131 127 128 117 126 117 117
290 299 319 312 259 284 358 355 323 256 291 286 283 293 299 293 295 297 295 295 298 301 302 294 288 277 259 222 204 210 221 220 212 171 166 140 130 131 128 125 119 128 122 117
300 166 282 241 250 292 317 292 258 289 265 281 287 302 297 296 297 300 298 299 301 297 298 300 296 281 287 197 193 191 206 202 179 139 154 137 125 125 129 129 130 125 123 122
266 250 248 312 269 275 310 331 251 267 275 296 300 299 301 298 301 300 298 300 301 298 299 299 257 262 242 192 193 187 194 189 154 135 145 135 124 122 120 122 128 131 132 131
271 312 266 260 278 310 279 285 299 296 280 303 310 304 300 301 301 300 300 301 297 295 299 304 264 214 217 195 192 189 194 180 143 138 136 128 120 117 109 95 103 120 124 137
189 227 284 291 299 269 279 279 294 298 315 319 314 310 304 301 301 304 300 297 296 305 312 308 314 195 197 196 181 183 191 186 133 134 130 125 121 112 107 102 85 55 81 88